| time (UTC) | temp F | wind direction | speed knots | gust knots | rain 1hr in | rain 24hr in | rain mn in | humidity % | barometer mb |
| 20260504004003 | 58 | 200 | 1.7 | 5.2 | 0.00 | 0.00 | 0.00 | 50 | 1013.6 |
| 20260504003503 | 58 | 193 | 1.7 | 5.2 | 0.00 | 0.00 | 0.00 | 50 | 1013.6 |
| 20260504003003 | 59 | 191 | 1.7 | 4.3 | 0.00 | 0.00 | 0.00 | 49 | 1013.5 |
| 20260504002503 | 59 | 196 | 1.7 | 4.3 | 0.00 | 0.00 | 0.00 | 48 | 1013.5 |
| 20260504002003 | 59 | 195 | 1.7 | 6.1 | 0.00 | 0.00 | 0.00 | 47 | 1013.6 |
| 20260504001503 | 59 | 200 | 1.7 | 6.1 | 0.00 | 0.00 | 0.00 | 47 | 1013.6 |
| 20260504001003 | 60 | 212 | 1.7 | 6.1 | 0.00 | 0.00 | 0.00 | 47 | 1013.7 |
| 20260504000503 | 60 | 208 | 1.7 | 5.2 | 0.00 | 0.00 | 0.00 | 47 | 1013.8 |
| 20260504000003 | 60 | 203 | 1.7 | 4.3 | 0.00 | 0.00 | 0.00 | 46 | 1013.9 |
| 20260503235524 | 60 | 203 | 1.7 | 5.2 | 0.00 | 0.00 | 0.00 | 47 | 1013.8 |
| 20260503235003 | 61 | 200 | 0.9 | 5.2 | 0.00 | 0.00 | 0.00 | 45 | 1013.7 |
| 20260503234503 | 61 | 202 | 0.9 | 5.2 | 0.00 | 0.00 | 0.00 | 46 | 1013.9 |
| 20260503234024 | 61 | 206 | 0.9 | 5.2 | 0.00 | 0.00 | 0.00 | 45 | 1014.1 |
| 20260503233503 | 61 | 222 | 1.7 | 4.3 | 0.00 | 0.00 | 0.00 | 46 | 1014.1 |
| 20260503233003 | 61 | 226 | 1.7 | 4.3 | 0.00 | 0.00 | 0.00 | 43 | 1014.1 |
| 20260503232503 | 61 | 223 | 1.7 | 4.3 | 0.00 | 0.00 | 0.00 | 43 | 1014.1 |
| 20260503232024 | 61 | 231 | 2.6 | 6.1 | 0.00 | 0.00 | 0.00 | 44 | 1014.3 |
| 20260503231503 | 61 | 236 | 3.5 | 7.8 | 0.00 | 0.00 | 0.00 | 41 | 1014.4 |
| 20260503231003 | 62 | 236 | 3.5 | 8.7 | 0.00 | 0.00 | 0.00 | 42 | 1014.5 |
| 20260503230524 | 62 | 238 | 3.5 | 8.7 | 0.00 | 0.00 | 0.00 | 41 | 1014.5 |
| 20260503230003 | 62 | 230 | 3.5 | 7.8 | 0.00 | 0.00 | 0.00 | 40 | 1014.5 |
| 20260503225503 | 63 | 212 | 2.6 | 7.0 | 0.00 | 0.00 | 0.00 | 39 | 1014.7 |
| 20260503225003 | 63 | 212 | 1.7 | 7.0 | 0.00 | 0.00 | 0.00 | 42 | 1014.5 |
| 20260503224503 | 63 | 212 | 2.6 | 7.0 | 0.00 | 0.00 | 0.00 | 43 | 1014.6 |
| 20260503224003 | 63 | 223 | 3.5 | 8.7 | 0.00 | 0.00 | 0.00 | 41 | 1014.8 |
| 20260503223503 | 63 | 233 | 3.5 | 8.7 | 0.00 | 0.00 | 0.00 | 40 | 1015.0 |
| 20260503223003 | 63 | 232 | 2.6 | 7.8 | 0.00 | 0.00 | 0.00 | 42 | 1015.0 |
| 20260503222524 | 63 | 230 | 2.6 | 6.1 | 0.00 | 0.00 | 0.00 | 40 | 1015.1 |
| 20260503222024 | 62 | 234 | 3.5 | 9.6 | 0.00 | 0.00 | 0.00 | 40 | 1015.0 |
| 20260503221503 | 63 | 227 | 4.3 | 11.3 | 0.00 | 0.00 | 0.00 | 37 | 1015.0 |
| 20260503221003 | 63 | 225 | 4.3 | 11.3 | 0.00 | 0.00 | 0.00 | 36 | 1015.1 |
| 20260503220503 | 64 | 229 | 3.5 | 9.6 | 0.00 | 0.00 | 0.00 | 38 | 1015.2 |
| 20260503220003 | 64 | 226 | 4.3 | 12.2 | 0.00 | 0.00 | 0.00 | 38 | 1015.3 |
| 20260503215503 | 64 | 224 | 4.3 | 12.2 | 0.00 | 0.00 | 0.00 | 39 | 1015.2 |
| 20260503215003 | 64 | 220 | 4.3 | 8.7 | 0.00 | 0.00 | 0.00 | 37 | 1015.3 |
| 20260503214503 | 64 | 222 | 4.3 | 11.3 | 0.00 | 0.00 | 0.00 | 38 | 1015.3 |
| 20260503214003 | 64 | 226 | 4.3 | 11.3 | 0.00 | 0.00 | 0.00 | 35 | 1015.1 |
| 20260503213524 | 64 | 230 | 3.5 | 10.4 | 0.00 | 0.00 | 0.00 | 37 | 1015.1 |
| 20260503213003 | 64 | 230 | 4.3 | 13.0 | 0.00 | 0.00 | 0.00 | 35 | 1015.1 |
| 20260503212503 | 64 | 225 | 5.2 | 12.2 | 0.00 | 0.00 | 0.00 | 36 | 1015.5 |
| 20260503212003 | 64 | 230 | 5.2 | 12.2 | 0.00 | 0.00 | 0.00 | 35 | 1015.3 |
| 20260503211503 | 64 | 227 | 4.3 | 12.2 | 0.00 | 0.00 | 0.00 | 34 | 1015.5 |
| 20260503211024 | 64 | 210 | 3.5 | 9.6 | 0.00 | 0.00 | 0.00 | 39 | 1015.5 |
| 20260503210503 | 64 | 209 | 4.3 | 13.0 | 0.00 | 0.00 | 0.00 | 38 | 1015.3 |
| 20260503210003 | 64 | 204 | 4.3 | 13.0 | 0.00 | 0.00 | 0.00 | 36 | 1015.4 |
| 20260503205503 | 64 | 211 | 4.3 | 13.0 | 0.00 | 0.00 | 0.00 | 37 | 1015.6 |
| 20260503205003 | 64 | 224 | 5.2 | 13.0 | 0.00 | 0.00 | 0.00 | 38 | 1015.5 |
| 20260503204503 | 64 | 217 | 4.3 | 12.2 | 0.00 | 0.00 | 0.00 | 39 | 1015.5 |
| 20260503204003 | 64 | 203 | 4.3 | 12.2 | 0.00 | 0.00 | 0.00 | 39 | 1015.7 |
| 20260503203503 | 64 | 193 | 4.3 | 12.2 | 0.00 | 0.00 | 0.00 | 38 | 1015.8 |
| 20260503203024 | 64 | 209 | 4.3 | 12.2 | 0.00 | 0.00 | 0.00 | 40 | 1016.0 |
| 20260503202503 | 64 | 228 | 3.5 | 10.4 | 0.00 | 0.00 | 0.00 | 41 | 1016.3 |
| 20260503202003 | 64 | 203 | 3.5 | 10.4 | 0.00 | 0.00 | 0.00 | 39 | 1016.4 |
| 20260503201503 | 64 | 198 | 3.5 | 10.4 | 0.00 | 0.00 | 0.00 | 41 | 1016.5 |
| 20260503201003 | 64 | 218 | 3.5 | 13.9 | 0.00 | 0.00 | 0.00 | 42 | 1016.7 |
| 20260503200503 | 64 | 226 | 3.5 | 13.9 | 0.00 | 0.00 | 0.00 | 41 | 1016.8 |
| 20260503200003 | 63 | 230 | 3.5 | 12.2 | 0.00 | 0.00 | 0.00 | 40 | 1016.9 |
| 20260503195503 | 63 | 236 | 3.5 | 13.0 | 0.00 | 0.00 | 0.00 | 37 | 1017.0 |
| 20260503195024 | 63 | 231 | 3.5 | 13.0 | 0.00 | 0.00 | 0.00 | 38 | 1017.0 |
| 20260503194503 | 63 | 216 | 4.3 | 11.3 | 0.00 | 0.00 | 0.00 | 45 | 1017.2 |
| 20260503194003 | 63 | 223 | 4.3 | 13.0 | 0.00 | 0.00 | 0.00 | 40 | 1017.1 |
| 20260503193503 | 63 | 235 | 4.3 | 13.0 | 0.00 | 0.00 | 0.00 | 40 | 1017.2 |
| 20260503193003 | 62 | 223 | 4.3 | 13.0 | 0.00 | 0.00 | 0.00 | 37 | 1017.3 |
| 20260503192503 | 63 | 208 | 4.3 | 13.0 | 0.00 | 0.00 | 0.00 | 40 | 1017.3 |
| 20260503192003 | 62 | 209 | 3.5 | 11.3 | 0.00 | 0.00 | 0.00 | 39 | 1017.4 |
| 20260503191503 | 63 | 210 | 3.5 | 11.3 | 0.00 | 0.00 | 0.00 | 39 | 1017.6 |
| 20260503191003 | 62 | 200 | 3.5 | 8.7 | 0.00 | 0.00 | 0.00 | 46 | 1017.6 |
| 20260503190524 | 62 | 198 | 4.3 | 8.7 | 0.00 | 0.00 | 0.00 | 38 | 1017.7 |
| 20260503190003 | 62 | 207 | 4.3 | 10.4 | 0.00 | 0.00 | 0.00 | 41 | 1017.8 |
| 20260503185503 | 62 | 221 | 3.5 | 10.4 | 0.00 | 0.00 | 0.00 | 42 | 1017.8 |
| 20260503185003 | 62 | 225 | 3.5 | 13.0 | 0.00 | 0.00 | 0.00 | 45 | 1017.8 |
| 20260503184503 | 62 | 221 | 4.3 | 13.0 | 0.00 | 0.00 | 0.00 | 39 | 1017.9 |
| 20260503184024 | 62 | 224 | 3.5 | 8.7 | 0.00 | 0.00 | 0.00 | 43 | 1017.9 |
| 20260503183524 | 61 | 230 | 4.3 | 14.8 | 0.00 | 0.00 | 0.00 | 42 | 1018.0 |
| 20260503183003 | 61 | 218 | 5.2 | 14.8 | 0.00 | 0.00 | 0.00 | 40 | 1018.0 |
| 20260503182503 | 61 | 203 | 4.3 | 10.4 | 0.00 | 0.00 | 0.00 | 39 | 1018.1 |
| 20260503182024 | 62 | 213 | 4.3 | 9.6 | 0.00 | 0.00 | 0.00 | 42 | 1018.2 |
| 20260503181504 | 62 | 216 | 3.5 | 10.4 | 0.00 | 0.00 | 0.00 | 40 | 1018.2 |
| 20260503181003 | 61 | 201 | 3.5 | 10.4 | 0.00 | 0.00 | 0.00 | 45 | 1018.4 |
| 20260503180503 | 61 | 201 | 3.5 | 9.6 | 0.00 | 0.00 | 0.00 | 43 | 1018.5 |
| 20260503180003 | 60 | 215 | 2.6 | 9.6 | 0.00 | 0.00 | 0.00 | 40 | 1018.6 |
| 20260503175503 | 60 | 205 | 2.6 | 7.8 | 0.00 | 0.00 | 0.00 | 42 | 1018.6 |
| 20260503175003 | 60 | 185 | 2.6 | 7.0 | 0.00 | 0.00 | 0.00 | 42 | 1018.6 |
| 20260503174503 | 60 | 190 | 2.6 | 7.8 | 0.00 | 0.00 | 0.00 | 44 | 1018.8 |
| 20260503174003 | 60 | 209 | 3.5 | 10.4 | 0.00 | 0.00 | 0.00 | 39 | 1018.8 |
| 20260503173503 | 60 | 214 | 3.5 | 10.4 | 0.00 | 0.00 | 0.00 | 38 | 1019.0 |
| 20260503173003 | 60 | 195 | 3.5 | 10.4 | 0.00 | 0.00 | 0.00 | 42 | 1019.0 |
| 20260503172503 | 60 | 203 | 3.5 | 10.4 | 0.00 | 0.00 | 0.00 | 41 | 1019.2 |
| 20260503172003 | 60 | 208 | 3.5 | 10.4 | 0.00 | 0.00 | 0.00 | 41 | 1019.3 |
| 20260503171503 | 60 | 207 | 2.6 | 9.6 | 0.00 | 0.00 | 0.00 | 44 | 1019.3 |
| 20260503171024 | 59 | 194 | 3.5 | 7.0 | 0.00 | 0.00 | 0.00 | 42 | 1019.4 |
| 20260503170503 | 60 | 187 | 2.6 | 7.0 | 0.00 | 0.00 | 0.00 | 38 | 1019.6 |
| 20260503150503 | 57 | 199 | 1.7 | 9.6 | 0.00 | 0.00 | 0.00 | 48 | 1020.5 |
| 20260503131003 | 48 | 220 | 2.6 | 7.0 | 0.00 | 0.00 | 0.00 | 68 | 1020.5 |
| 20260503130503 | 48 | 209 | 1.7 | 5.2 | 0.00 | 0.00 | 0.00 | 71 | 1020.5 |
| 20260503110524 | 29 | 160 | 0.0 | 0.9 | 0.00 | 0.00 | 0.00 | 95 | 1019.8 |
| 20260503090503 | 30 | 0 | 0.0 | 0.0 | 0.00 | 0.00 | 0.00 | 93 | 1019.2 |
| 20260503081503 | 31 | 0 | 0.0 | 0.0 | 0.00 | 0.00 | 0.00 | 92 | 1018.9 |
| 20260503081003 | 31 | 0 | 0.0 | 0.0 | 0.00 | 0.00 | 0.00 | 92 | 1018.9 |
| 20260503080524 | 31 | 0 | 0.0 | 0.0 | 0.00 | 0.00 | 0.00 | 92 | 1018.9 |
| 20260503072524 | 32 | 0 | 0.0 | 0.0 | 0.00 | 0.00 | 0.00 | 92 | 1018.8 |
| 20260503072003 | 32 | 0 | 0.0 | 0.0 | 0.00 | 0.00 | 0.00 | 91 | 1018.8 |
| 20260503071524 | 32 | 0 | 0.0 | 0.0 | 0.00 | 0.00 | 0.00 | 91 | 1018.8 |
| 20260503071003 | 32 | 0 | 0.0 | 0.0 | 0.00 | 0.00 | 0.00 | 91 | 1018.8 |
| 20260503070503 | 33 | 0 | 0.0 | 0.0 | 0.00 | 0.00 | 0.00 | 91 | 1018.8 |
| 20260503055003 | 36 | 0 | 0.0 | 0.0 | 0.00 | 0.00 | 0.00 | 86 | 1019.0 |
| 20260503054503 | 36 | 0 | 0.0 | 0.0 | 0.00 | 0.00 | 0.00 | 85 | 1019.0 |
| 20260503054024 | 37 | 0 | 0.0 | 0.0 | 0.00 | 0.00 | 0.00 | 84 | 1019.0 |
| 20260503053503 | 37 | 0 | 0.0 | 0.0 | 0.00 | 0.00 | 0.00 | 83 | 1018.9 |
| 20260503053003 | 38 | 351 | 0.0 | 0.9 | 0.00 | 0.00 | 0.00 | 83 | 1019.0 |
| 20260503052503 | 38 | 351 | 0.0 | 0.9 | 0.00 | 0.00 | 0.00 | 81 | 1019.0 |
| 20260503052003 | 38 | 0 | 0.0 | 0.0 | 0.00 | 0.00 | 0.00 | 81 | 1019.0 |
| 20260503051503 | 39 | 351 | 0.0 | 0.9 | 0.00 | 0.00 | 0.00 | 80 | 1019.1 |
| 20260503051003 | 39 | 351 | 0.0 | 0.9 | 0.00 | 0.00 | 0.00 | 81 | 1019.1 |
| 20260503050503 | 39 | 351 | 0.0 | 0.9 | 0.00 | 0.00 | 0.00 | 79 | 1019.1 |
| 20260503050003 | 40 | 351 | 0.0 | 0.9 | 0.00 | 0.00 | 0.00 | 78 | 1019.1 |
| 20260503045503 | 40 | 351 | 0.0 | 0.9 | 0.00 | 0.00 | 0.00 | 75 | 1019.1 |
| 20260503045024 | 41 | 351 | 0.0 | 0.9 | 0.00 | 0.00 | 0.00 | 74 | 1019.1 |
| 20260503044503 | 41 | 351 | 0.0 | 1.7 | 0.00 | 0.00 | 0.00 | 73 | 1019.1 |
| 20260503044003 | 42 | 351 | 0.9 | 2.6 | 0.00 | 0.00 | 0.00 | 72 | 1019.1 |
| 20260503043503 | 42 | 352 | 0.9 | 2.6 | 0.00 | 0.00 | 0.00 | 69 | 1019.1 |
| 20260503043003 | 42 | 358 | 0.9 | 2.6 | 0.00 | 0.00 | 0.00 | 68 | 1019.1 |
| 20260503042503 | 42 | 6 | 1.7 | 2.6 | 0.00 | 0.00 | 0.00 | 68 | 1019.0 |
| 20260503042003 | 43 | 12 | 1.7 | 2.6 | 0.00 | 0.00 | 0.00 | 67 | 1019.0 |
| 20260503041503 | 43 | 16 | 1.7 | 2.6 | 0.00 | 0.00 | 0.00 | 67 | 1019.0 |
| 20260503041003 | 43 | 19 | 1.7 | 3.5 | 0.00 | 0.00 | 0.00 | 67 | 1018.9 |
| 20260503040503 | 43 | 18 | 1.7 | 3.5 | 0.00 | 0.00 | 0.00 | 67 | 1018.9 |
| 20260503040003 | 44 | 15 | 1.7 | 4.3 | 0.00 | 0.00 | 0.00 | 67 | 1018.9 |
| 20260503035503 | 44 | 9 | 1.7 | 4.3 | 0.00 | 0.00 | 0.00 | 67 | 1018.9 |
| 20260503035003 | 44 | 2 | 1.7 | 3.5 | 0.00 | 0.00 | 0.00 | 67 | 1018.9 |
| 20260503034524 | 44 | 4 | 1.7 | 4.3 | 0.00 | 0.00 | 0.00 | 67 | 1018.9 |
| 20260503034003 | 43 | 357 | 2.6 | 5.2 | 0.00 | 0.00 | 0.00 | 68 | 1018.8 |
| 20260503033503 | 43 | 347 | 2.6 | 6.1 | 0.00 | 0.00 | 0.00 | 72 | 1018.8 |
| 20260503033003 | 43 | 345 | 2.6 | 6.1 | 0.00 | 0.00 | 0.00 | 71 | 1018.8 |
| 20260503032503 | 42 | 340 | 2.6 | 4.3 | 0.00 | 0.00 | 0.00 | 72 | 1018.7 |
| 20260503032003 | 42 | 339 | 2.6 | 4.3 | 0.00 | 0.00 | 0.00 | 74 | 1018.7 |
| 20260503031503 | 42 | 338 | 2.6 | 4.3 | 0.00 | 0.00 | 0.00 | 75 | 1018.8 |
| 20260503031003 | 41 | 332 | 1.7 | 4.3 | 0.00 | 0.00 | 0.00 | 74 | 1018.7 |
| 20260503030503 | 41 | 330 | 1.7 | 4.3 | 0.00 | 0.00 | 0.00 | 76 | 1018.7 |
| 20260503030003 | 41 | 333 | 1.7 | 4.3 | 0.00 | 0.00 | 0.00 | 77 | 1018.7 |
| 20260503025503 | 40 | 336 | 1.7 | 3.5 | 0.00 | 0.00 | 0.00 | 78 | 1018.6 |
| 20260503025003 | 40 | 337 | 1.7 | 2.6 | 0.00 | 0.00 | 0.00 | 80 | 1018.6 |
| 20260503024524 | 40 | 332 | 0.9 | 3.5 | 0.00 | 0.00 | 0.00 | 82 | 1018.4 |
| 20260503024003 | 41 | 325 | 0.9 | 3.5 | 0.00 | 0.00 | 0.00 | 83 | 1018.4 |
| 20260503023503 | 41 | 327 | 0.9 | 2.6 | 0.00 | 0.00 | 0.00 | 83 | 1018.3 |
| 20260503023003 | 41 | 331 | 1.7 | 2.6 | 0.00 | 0.00 | 0.00 | 83 | 1018.3 |
| 20260503022524 | 41 | 334 | 1.7 | 2.6 | 0.00 | 0.00 | 0.00 | 83 | 1018.2 |
| 20260503022003 | 42 | 331 | 0.9 | 2.6 | 0.00 | 0.00 | 0.00 | 84 | 1018.2 |
| 20260503021503 | 42 | 323 | 0.9 | 2.6 | 0.00 | 0.00 | 0.00 | 84 | 1018.1 |
| 20260503021003 | 42 | 317 | 0.0 | 2.6 | 0.00 | 0.00 | 0.00 | 84 | 1018.0 |
| 20260503020524 | 43 | 303 | 0.0 | 0.9 | 0.00 | 0.00 | 0.00 | 84 | 1017.9 |
| 20260503020003 | 43 | 305 | 0.0 | 0.9 | 0.00 | 0.00 | 0.00 | 84 | 1017.9 |
| 20260503015503 | 43 | 303 | 0.9 | 1.7 | 0.00 | 0.00 | 0.00 | 82 | 1017.8 |
| 20260503015025 | 44 | 302 | 0.0 | 1.7 | 0.00 | 0.00 | 0.00 | 82 | 1017.7 |
| 20260503014503 | 44 | 300 | 0.0 | 0.9 | 0.00 | 0.00 | 0.00 | 80 | 1017.7 |
| 20260503014003 | 44 | 0 | 0.0 | 0.0 | 0.00 | 0.00 | 0.00 | 80 | 1017.6 |
| 20260503013503 | 45 | 300 | 0.0 | 0.9 | 0.00 | 0.00 | 0.00 | 80 | 1017.5 |
| 20260503013003 | 45 | 300 | 0.0 | 0.9 | 0.00 | 0.00 | 0.00 | 80 | 1017.4 |
| 20260503012503 | 45 | 301 | 0.0 | 0.9 | 0.00 | 0.00 | 0.00 | 78 | 1017.4 |
| 20260503012003 | 46 | 300 | 0.0 | 1.7 | 0.00 | 0.00 | 0.00 | 77 | 1017.4 |
| 20260503011503 | 46 | 300 | 0.0 | 1.7 | 0.00 | 0.00 | 0.00 | 78 | 1017.3 |
| 20260503011003 | 46 | 301 | 0.0 | 1.7 | 0.00 | 0.00 | 0.00 | 79 | 1017.2 |
| 20260503010524 | 46 | 300 | 0.0 | 1.7 | 0.00 | 0.00 | 0.00 | 78 | 1017.1 |
| 20260503010024 | 46 | 299 | 0.0 | 1.7 | 0.00 | 0.00 | 0.00 | 76 | 1017.1 |
| 20260503005503 | 46 | 301 | 0.0 | 1.7 | 0.00 | 0.00 | 0.00 | 75 | 1017.1 |
| 20260503005003 | 47 | 301 | 0.0 | 1.7 | 0.00 | 0.00 | 0.00 | 73 | 1017.0 |
| 20260503004524 | 47 | 0 | 0.0 | 0.0 | 0.00 | 0.00 | 0.00 | 71 | 1017.0 |